CW3066 Weather Reports


time (UTC)temp
C
wind
direction
speed
KPH
gust
KPH
rain 1hr
cm
rain 24hr
cm
rain mn
cm
humidity
%
barometer
mb
20260508074554 3 343 0.0 0.0 0.00 0.00 0.00 92 1010.5
20260508073053 3 344 0.0 0.0 0.00 0.00 0.00 92 1010.4
20260508071557 3 346 0.0 0.0 0.00 0.00 0.00 92 1010.5
20260508070054 4 346 0.0 0.0 0.00 0.00 0.00 92 1010.6
20260508064550 4 347 0.0 0.0 0.00 0.00 0.00 91 1010.6
20260508063057 4 347 0.0 0.0 0.00 0.00 0.00 90 1010.5
20260508061553 4 348 0.0 0.0 0.00 0.00 0.00 90 1010.4
20260508060052 4 348 0.0 0.0 0.00 0.00 0.00 90 1010.6
20260508054544 5 348 0.0 0.0 0.00 0.00 0.00 89 1010.8
20260508053043 5 348 0.0 0.0 0.00 0.00 0.00 88 1010.8
20260508051540 5 348 0.0 0.0 0.00 0.00 0.00 87 1010.8
20260508050042 5 317 0.0 0.0 0.00 0.00 0.00 86 1010.7
20260508044537 5 339 0.0 0.0 0.00 0.00 0.00 85 1010.6
20260508043035 6 343 0.0 0.0 0.00 0.00 0.00 84 1010.6
20260508041535 6 346 0.0 0.0 0.00 0.00 0.00 83 1010.6
20260508040038 6 348 0.0 0.0 0.00 0.00 0.00 81 1010.6
20260508034533 6 348 0.0 0.0 0.00 0.00 0.00 78 1010.7
20260508033032 7 349 0.0 0.0 0.00 0.00 0.00 75 1010.7
20260508031536 7 350 0.0 0.0 0.00 0.00 0.00 72 1010.9
20260508030031 7 350 0.0 0.0 0.00 0.00 0.00 69 1010.7
20260508024544 8 350 0.0 0.0 0.00 0.00 0.00 68 1010.6
20260508023032 8 350 0.0 0.0 0.00 0.00 0.00 64 1010.6
20260508021530 9 350 0.0 0.0 0.00 0.00 0.00 61 1010.5
20260508020029 10 351 0.0 0.0 0.00 0.00 0.00 56 1010.4
20260508014532 10 351 0.0 0.0 0.00 0.00 0.00 52 1010.0
20260508013028 11 351 0.0 0.0 0.00 0.00 0.00 49 1010.0
20260508011527 12 351 0.0 0.0 0.00 0.00 0.00 44 1009.8
20260508010033 12 351 0.0 0.0 0.00 0.00 0.00 41 1009.4
20260508004526 13 351 0.0 1.6 0.00 0.00 0.00 37 1009.4
20260508003025 14 351 0.0 0.0 0.00 0.00 0.00 34 1009.4
20260508001526 15 351 0.0 4.8 0.00 0.00 0.00 30 1009.1
20260508000024 15 355 0.0 4.8 0.00 0.00 0.00 30 1009.1
20260507234525 16 355 0.0 6.4 0.00 0.00 0.00 28 1008.9
20260507233036 16 355 0.0 6.4 0.00 0.00 0.00 27 1009.0
20260507231532 17 351 1.6 4.8 0.00 0.00 0.00 25 1009.0
20260507230022 17 355 0.0 6.4 0.00 0.00 0.00 25 1009.0
20260507224521 17 351 1.6 8.0 0.00 0.00 0.00 25 1008.9
20260507223021 17 351 1.6 9.7 0.00 0.00 0.00 25 1008.9
20260507221532 17 355 0.0 11.3 0.00 0.00 0.00 26 1009.0
20260507220021 17 355 0.0 4.8 0.00 0.00 0.00 27 1008.9
20260507214520 17 355 0.0 11.3 0.00 0.00 0.00 25 1008.9
20260507213018 17 355 0.0 11.3 0.00 0.00 0.00 27 1008.8
20260507211523 18 355 1.6 6.4 0.00 0.00 0.00 24 1008.7
20260507210017 18 355 0.0 6.4 0.00 0.00 0.00 24 1008.6
20260507204514 17 287 3.2 9.7 0.00 0.00 0.00 25 1008.7
20260507203014 17 355 1.6 8.0 0.00 0.00 0.00 26 1008.6
20260507201513 17 351 0.0 6.4 0.00 0.00 0.00 28 1008.7
20260507200012 17 355 3.2 9.7 0.00 0.00 0.00 28 1008.9
20260507194512 17 355 0.0 8.0 0.00 0.00 0.00 27 1009.0
20260507193009 16 355 0.0 9.7 0.00 0.00 0.00 29 1009.0
20260507191507 16 355 3.2 9.7 0.00 0.00 0.00 31 1009.0
20260507190008 16 355 1.6 8.0 0.00 0.00 0.00 31 1009.3
20260507184507 16 355 3.2 8.0 0.00 0.00 0.00 30 1009.3
20260507183010 16 355 1.6 11.3 0.00 0.00 0.00 32 1009.3
20260507181504 16 350 1.6 9.7 0.00 0.00 0.00 33 1009.4
20260507180003 15 351 1.6 12.9 0.00 0.00 0.00 32 1009.2
20260507174502 15 351 3.2 9.7 0.00 0.00 0.00 34 1009.5
20260507173104 15 355 1.6 6.4 0.00 0.00 0.00 37 1009.6
20260507171605 15 355 1.6 11.3 0.00 0.00 0.00 34 1010.0
20260507170103 15 351 1.6 11.3 0.00 0.00 0.00 36 1010.4
20260507164603 15 355 1.6 9.7 0.00 0.00 0.00 34 1010.1
20260507163057 15 351 4.8 9.7 0.00 0.00 0.00 34 1010.2
20260507161555 15 355 1.6 6.4 0.00 0.00 0.00 36 1010.3
20260507160056 14 355 0.0 9.7 0.00 0.00 0.00 39 1010.5
20260507154558 14 351 0.0 6.4 0.00 0.00 0.00 38 1010.4
20260507153053 15 351 0.0 6.4 0.00 0.00 0.00 38 1010.2
20260507151552 14 344 0.0 4.8 0.00 0.00 0.00 40 1010.2
20260507150050 13 355 1.6 9.7 0.00 0.00 0.00 39 1010.1
20260507144548 13 355 0.0 3.2 0.00 0.00 0.00 41 1010.1
20260507143052 13 355 0.0 3.2 0.00 0.00 0.00 42 1010.1
20260507141548 12 355 0.0 9.7 0.00 0.00 0.00 43 1010.3
20260507140044 11 355 1.6 6.4 0.00 0.00 0.00 46 1010.1
20260507134541 11 355 0.0 4.8 0.00 0.00 0.00 47 1010.1
20260507133058 11 355 1.6 9.7 0.00 0.00 0.00 48 1010.3
20260507131549 10 355 0.0 6.4 0.00 0.00 0.00 51 1010.2
20260507130054 10 355 0.0 4.8 0.00 0.00 0.00 53 1010.3
20260507124538 10 355 0.0 6.4 0.00 0.00 0.00 53 1010.4
20260507123037 9 326 0.0 8.0 0.00 0.00 0.00 55 1010.6
20260507121535 8 325 0.0 4.8 0.00 0.00 0.00 61 1010.4
20260507120042 8 355 0.0 3.2 0.00 0.00 0.00 70 1010.4
20260507114550 7 355 0.0 4.8 0.00 0.00 0.00 80 1010.2
20260507113031 6 340 0.0 3.2 0.00 0.00 0.00 90 1010.1
20260507111534 5 340 0.0 0.0 0.00 0.00 0.00 92 1010.0
20260507110027 5 340 0.0 0.0 0.00 0.00 0.00 91 1009.6
20260507104526 5 340 0.0 0.0 0.00 0.00 0.00 90 1009.4
20260507103024 6 340 0.0 0.0 0.00 0.00 0.00 90 1009.2
20260507101523 6 340 0.0 0.0 0.00 0.10 0.00 89 1009.4
20260507100020 6 340 0.0 0.0 0.00 0.10 0.00 89 1009.3
20260507094520 6 340 0.0 0.0 0.00 0.10 0.00 88 1009.3
20260507093017 6 340 0.0 0.0 0.00 0.10 0.00 87 1009.3
20260507091520 7 340 0.0 0.0 0.00 0.69 0.00 86 1009.3
20260507090021 7 340 0.0 0.0 0.00 0.69 0.00 85 1009.0
20260507084511 7 340 0.0 0.0 0.00 0.69 0.00 84 1009.2
20260507083010 8 340 0.0 0.0 0.00 0.69 0.00 83 1008.8
20260507081508 8 340 0.0 0.0 0.00 1.07 0.00 81 1008.8
20260507080005 8 340 0.0 0.0 0.00 1.07 0.00 79 1008.8